TimeCST,TemperatureF,Dew PointF,Humidity,Sea Level PressureIn,VisibilityMPH,Wind Direction,Wind SpeedMPH,Gust SpeedMPH,PrecipitationIn,Events,Conditions,WindDirDegrees,DateUTC
12:54 AM,43.0,35.1,74,29.77,10.0,East,9.2,-,N/A,,Clear,80,2012-11-09 06:54:00
1:54 AM,41.0,34.0,76,29.75,10.0,SE,8.1,-,N/A,,Clear,130,2012-11-09 07:54:00
2:54 AM,39.0,34.0,82,29.75,10.0,South,3.5,-,N/A,,Clear,170,2012-11-09 08:54:00
3:54 AM,39.0,34.0,82,29.74,10.0,NW,6.9,-,N/A,,Clear,310,2012-11-09 09:54:00
4:54 AM,35.1,32.0,89,29.75,10.0,North,5.8,-,N/A,,Clear,350,2012-11-09 10:54:00
5:54 AM,36.0,32.0,86,29.75,10.0,NNE,6.9,-,N/A,,Clear,20,2012-11-09 11:54:00
6:54 AM,35.1,30.9,85,29.75,10.0,Calm,Calm,-,N/A,,Clear,0,2012-11-09 12:54:00
7:54 AM,39.0,33.1,79,29.76,10.0,NE,4.6,-,N/A,,Clear,50,2012-11-09 13:54:00
8:54 AM,46.0,37.0,71,29.76,10.0,East,6.9,-,N/A,,Clear,90,2012-11-09 14:54:00
9:54 AM,52.0,37.9,59,29.75,10.0,ENE,3.5,-,N/A,,Clear,70,2012-11-09 15:54:00
10:54 AM,57.0,36.0,45,29.73,10.0,ESE,4.6,-,N/A,,Clear,120,2012-11-09 16:54:00
11:54 AM,63.0,34.0,34,29.68,10.0,SE,8.1,-,N/A,,Clear,130,2012-11-09 17:54:00
12:54 PM,75.9,30.9,19,29.60,10.0,South,9.2,-,N/A,,Clear,180,2012-11-09 18:54:00
1:54 PM,80.1,30.0,16,29.57,10.0,South,25.3,31.1,N/A,,Clear,190,2012-11-09 19:54:00
2:54 PM,80.1,27.0,14,29.56,10.0,SSW,25.3,34.5,N/A,,Partly Cloudy,210,2012-11-09 20:54:00
3:54 PM,80.1,28.9,15,29.55,10.0,SSW,24.2,32.2,N/A,,Clear,210,2012-11-09 21:54:00
4:54 PM,75.9,30.0,19,29.57,10.0,SSW,17.3,-,N/A,,Clear,200,2012-11-09 22:54:00
5:54 PM,70.0,30.0,23,29.59,10.0,South,15.0,-,N/A,,Clear,190,2012-11-09 23:54:00
6:54 PM,66.9,28.9,24,29.60,10.0,South,15.0,-,N/A,,Clear,190,2012-11-10 00:54:00
7:54 PM,68.0,30.0,24,29.60,10.0,SSW,17.3,25.3,N/A,,Clear,200,2012-11-10 01:54:00
8:54 PM,64.9,32.0,29,29.59,10.0,South,21.9,28.8,N/A,,Clear,190,2012-11-10 02:54:00
9:54 PM,64.9,35.1,33,29.60,10.0,SSW,19.6,28.8,N/A,,Clear,210,2012-11-10 03:54:00
10:54 PM,63.0,36.0,37,29.60,10.0,SW,18.4,-,N/A,,Clear,220,2012-11-10 04:54:00
11:54 PM,60.1,37.0,42,29.60,10.0,SSW,19.6,26.5,N/A,,Clear,210,2012-11-10 05:54:00